Terug naar catalogus

WMAP

ActiefWetenschapLPO
NORAD 26859·PAYLOAD·🇺🇸 United States

Gelanceerd Jun 30, 2001 vanaf Cape Canaveral Space Force Station

Loading…

TLE

VerouderdSource: Space-Track

Epoch: Jul 27, 2001, 08:30 UTC

1 26859U 01027A   01208.35486111 -.00014293 +00000-0 +10000-3 0  9994
2 26859 027.8097 031.0262 9441726 052.5765 032.2971 00.09816132000039

Volg WMAP in realtime met AllMySat

Download on the App Store